Simultaneous Nadir Overpasses (SNOs) Predictions

Prediction of SNOs between NOAA-20 and TERRA Satellite Orbit:

Table of predicted SNOs for the next 14.0 days since TLE Epoch: 11/16/2024
Index Date (NOAA-20) Time (NOAA-20) Lat,Lon (NOAA-20) SZA (NOAA-20 ) Date (TERRA) Time (TERRA) Lat,Lon (TERRA) SZA (TERRA ) Distance(km) Time Diff (sec)
1 11/18/2024 10:26:32 72.88, 14.55 92.24 11/18/2024 10:27:23 72.86, 14.54 92.22 2.24 51
2 11/18/2024 11:17:14 -72.81,-177.97 87.83 11/18/2024 11:16:45 -72.80,-177.92 87.84 1.86 29
3 11/20/2024 21:38:54 72.87,-153.51 92.79 11/20/2024 21:39:36 72.86,-153.56 92.78 1.93 42
4 11/20/2024 22:29:36 -72.79, 13.97 87.29 11/20/2024 22:28:58 -72.79, 13.98 87.28 0.70 38
5 11/23/2024 08:51:15 72.86, 38.40 93.32 11/23/2024 08:51:47 72.86, 38.35 93.31 1.93 32
6 11/23/2024 09:41:57 -72.78,-154.10 86.77 11/23/2024 09:41:09 -72.79,-154.12 86.76 1.41 48
7 11/25/2024 20:03:37 72.87,-129.71 93.81 11/25/2024 20:03:58 72.86,-129.74 93.80 1.68 21
8 11/25/2024 20:54:19 -72.78, 37.80 86.28 11/25/2024 20:53:20 -72.79, 37.80 86.27 1.12 59
9 11/28/2024 06:25:29 -73.69,-106.92 84.88 11/28/2024 06:26:35 -73.58,-104.07 85.08 90.16 66
10 11/28/2024 07:15:59 72.89, 62.16 94.28 11/28/2024 07:16:08 72.86, 62.19 94.25 3.23 9



Historial Predications of SNOs between NOAA-20 and TERRA
